Location: Newark
(36.1358°N, 115.1208°W)
Time: 07:46:04
(UTC+00:00)

Vanguard 2 - Visible Passes

Search period start: 28 February 2020 00:00
Search period end: 09 March 2020 00:00
Orbit: 552 x 2939 km, 32.9° (Epoch: 27 February)

Date Brightness Start Highest point End Pass type
(mag) Time Alt. Az. Time Alt. Az. Time Alt. Az.
28 Feb 9.7 10:25:06 57° ESE 10:25:06 57° ESE 10:36:27 10° E visible
28 Feb 9.9 12:26:30 31° W 12:33:10 64° SSW 12:49:47 10° ESE visible
29 Feb 11.3 08:40:34 12° E 08:40:34 12° E 08:41:08 10° E visible
29 Feb 9.5 10:41:58 65° SE 10:41:58 65° SE 10:54:39 10° ESE visible
29 Feb 10.0 12:43:23 24° W 12:51:11 57° SSW 13:07:30 10° SE visible
01 Mar 11.1 08:57:28 15° E 08:57:28 15° E 08:59:21 10° E visible
01 Mar 9.3 10:58:53 69° SSE 10:58:53 69° SSE 11:12:48 10° ESE visible
01 Mar 10.2 13:00:17 18° W 13:09:10 48° SSW 13:24:58 10° SE visible
02 Mar 10.9 09:14:25 19° E 09:14:25 19° E 09:17:34 10° E visible
02 Mar 9.2 11:15:51 64° SSW 11:16:13 65° SSW 11:30:49 10° ESE visible
02 Mar 10.5 13:17:15 13° W 13:27:08 40° SSW 13:42:05 10° SE visible
03 Mar 10.7 09:31:25 24° ESE 09:31:25 24° ESE 09:35:46 10° E visible
03 Mar 9.3 11:32:51 54° SW 11:34:13 57° SSW 11:48:39 10° SE visible
03 Mar 10.6 13:34:52 10° W 13:45:05 32° SSW 13:58:49 10° SSE visible
04 Mar 10.5 09:48:28 28° ESE 09:48:28 28° ESE 09:53:55 10° ESE visible
04 Mar 9.5 11:49:54 44° SW 11:52:12 49° SSW 12:06:15 10° SE visible
05 Mar 10.3 10:05:35 32° ESE 10:05:35 32° ESE 10:11:59 10° ESE visible
05 Mar 9.7 12:07:00 34° SW 12:10:11 40° SSW 12:23:33 10° SE visible
06 Mar 10.1 10:22:44 34° SE 10:22:44 34° SE 10:29:53 10° ESE visible
06 Mar 10.0 12:24:10 26° WSW 12:28:11 32° SSW 12:40:28 10° SSE visible
07 Mar 10.1 10:39:56 35° SSE 10:39:56 35° SSE 10:47:35 10° SE visible
07 Mar 10.3 12:41:22 18° WSW 12:46:11 24° SSW 12:56:53 10° SSE visible
08 Mar 10.1 10:57:11 32° SSE 10:57:11 32° SSE 11:05:01 10° SE visible
08 Mar 10.6 12:58:37 12° WSW 13:04:13 18° SSW 13:12:30 10° S visible
